[[{"header":{"parameterUnit":"m.s-1","parameterCategory":1,"la1":30.2991,"la2":30.254,"lo1":-89.0895,"lo2":-89.0444,"dy":0.0017,"dx":0.0017,"nx":28,"ny":28,"refTime":"2024-02-14T09:00:00:Z","depth":0,"parameterNumber":2,"parameterNumberName":"U-component_of_WINDS"},"data":[0,0,0,0,0,0,0,0,0,0,0,0,0,0,0,0,0,0,0,0,0,0,0,0,0,0,0,0,0,0,0,0,0,0,0,0,0,0,0,0,0,0,0,0,0,0,0,0,0,0,0,0,0,0,0,0,0,0,-2.041,-2.0411,0,-2.0485,-2.0486,-2.0486,-2.0412,-2.0409,-2.0406,-2.0403,-2.0483,-2.0488,-2.0493,0,0,0,0,0,0,0,0,0,0,0,0,0,-2.0205,-2.0209,-2.041,-2.0411,-2.0412,-2.0485,-2.0486,-2.0487,-2.0412,-2.0409,-2.0405,-2.0402,-2.0482,-2.0487,-2.0493,0,0,0,0,0,0,0,0,0,0,0,0,0,-2.0289,-2.0211,-2.041,-2.0383,-2.0382,-2.0484,-2.0486,-2.0487,-2.0413,-2.0409,-2.0404,-2.04,-2.048,-2.0487,-2.0494,-2.0627,0,0,-2.0516,-2.0519,0,0,0,0,0,0,0,0,-2.0284,-2.0296,-2.0386,-2.0385,-2.0384,-2.0434,-2.0443,-2.0534,-2.0414,-2.0401,-2.0403,-2.0398,-2.0471,-2.0478,-2.0502,-2.0631,-2.0635,-2.0517,-2.0521,-2.0525,-2.0527,0,0,0,0,0,0,0,-2.0278,-2.0293,-2.0439,-2.0388,-2.0386,-2.0369,-2.0376,-2.046,-2.046,-2.0402,-2.0397,-2.0406,-2.0469,-2.0495,-2.0504,-2.0636,-2.0517,-2.0523,-2.0528,-2.0531,-2.0878,-2.0882,0,0,0,0,0,0,-2.0275,-2.0288,-2.0437,-2.0442,-2.0322,-2.0376,-2.0384,-2.0423,-2.0459,-2.046,-2.041,-2.0403,-2.0485,-2.0495,-2.0506,-2.0665,-2.0524,-2.0531,-2.0536,-2.0873,-2.0879,-2.0884,0,0,0,0,0,0,-2.0271,-2.0289,-2.0434,-2.0364,-2.0381,-2.0384,-2.0428,-2.0426,-2.0452,-2.0465,-2.0465,-2.0437,-2.0482,-2.0496,-2.0598,-2.0667,-2.0535,-2.0541,-2.0867,-2.0875,-2.0881,-2.0984,0,0,0,0,0,0,-2.0265,-2.0288,-2.0338,-2.0365,-2.0385,-2.0524,-2.0433,-2.0431,-2.0465,-2.0456,-2.049,-2.0491,-2.048,-2.0587,-2.0605,-2.0675,-2.0547,-2.0861,-2.0871,-2.0879,-2.0975,-2.0994,-2.101,0,0,0,0,0,-2.0258,-2.0365,-2.0341,-2.0359,-2.0447,-2.0528,-2.0539,-2.0523,-2.0471,-2.0522,-2.053,-2.049,-2.0656,-2.0598,-2.0618,-2.069,-2.0857,-2.0868,-2.0879,-2.0966,-2.099,-2.101,0,0,0,0,0,0,-2.0347,-2.0368,-2.0342,-2.046,-2.0493,-2.0515,-2.0579,-2.0548,-2.0597,-2.0587,-2.0565,-2.0573,-2.0681,-2.0696,-2.0631,-2.0821,-2.0748,-2.0763,-2.0808,-2.0831,-2.0848,-2.0843,-2.0553,0,0,0,0,0,-2.038,-2.0443,-2.0458,-2.0561,-2.0578,-2.0576,-2.0611,-2.0595,-2.0628,-2.0642,-2.0657,-2.0692,-2.0752,-2.0792,-2.0848,-2.0976,-2.0982,-2.1035,-2.1053,-2.1068,-2.1082,-2.1151,-2.1175,-2.092,-2.092,-2.092,0,0,-2.045,-2.0469,-2.051,-2.0579,-2.0603,-2.0669,-2.0588,-2.0662,-2.0711,-2.0653,-2.075,-2.0763,-2.08,-2.0916,-2.0967,-2.0931,-2.1154,-2.1082,-2.1093,-2.11,-2.1165,-2.1189,-2.121,-2.0927,-2.0926,-2.0925,0,0,-2.0611,-2.0631,-2.0719,-2.0744,-2.078,-2.0777,-2.0798,-2.0826,-2.0831,-2.0928,-2.0886,-2.0944,-2.1048,-2.1076,-2.1104,-2.1275,-2.1241,-2.1294,-2.1388,-2.1456,-2.1476,-2.1494,-2.1556,-2.1578,-2.1307,-2.1307,-2.1308,0,-2.0693,-2.079,-2.0768,-2.0845,-2.0877,-2.0826,-2.0916,-2.0941,-2.0994,-2.1018,-2.0976,-2.1104,-2.1126,-2.1248,-2.1289,-2.1313,-2.1337,-2.129,-2.1475,-2.1492,-2.1509,-2.1567,-2.159,-2.1314,-2.1313,-2.1312,-2.1312,0,-2.089,-2.0959,-2.1025,-2.1077,-2.1116,-2.1199,-2.119,-2.1233,-2.1213,-2.1216,-2.1315,-2.1338,-2.1398,-2.1425,-2.1408,-2.1545,-2.1521,-2.1478,-2.1404,-2.154,-2.1594,-2.1617,-2.1323,-2.132,-2.1319,-2.1317,0,0,-2.1111,-2.1148,-2.1173,-2.1195,-2.1231,-2.1284,-2.1364,-2.1421,-2.1459,-2.1497,-2.1565,-2.1653,-2.1612,-2.1644,-2.1629,-2.1688,-2.1823,-2.1637,-2.1637,-2.1671,-2.1976,-2.201,-2.2036,-2.1799,-2.1803,-2.1807,-2.1973,0,-2.1273,-2.1412,-2.1394,-2.1528,-2.1591,-2.1543,-2.1613,-2.1643,-2.1647,-2.1702,-2.1707,-2.177,-2.1711,-2.173,-2.1786,-2.1794,-2.1884,-2.1782,-2.1863,-2.1867,-2.1857,-2.2064,-2.21,-2.2256,-2.1994,-2.1998,-2.2001,0,-2.1482,-2.1526,-2.1666,-2.1691,-2.1717,-2.1781,-2.1832,-2.1884,-2.1917,-2.1916,-2.1951,-2.1925,-2.2006,-2.193,-2.2042,-2.1973,-2.2005,-2.2014,-2.202,-2.2028,-2.1943,-2.2079,-2.2305,-2.2329,-2.2034,-2.2031,-2.2029,0,-2.163,-2.1725,-2.182,-2.1841,-2.1873,-2.1919,-2.1934,-2.1963,-2.1998,-2.2043,-2.2066,-2.212,-2.215,-2.2192,-2.2182,-2.2127,-2.2297,-2.2219,-2.2299,-2.23,-2.2339,-2.2337,-2.2575,-2.2358,-2.2357,-2.2357,-2.2356,0,-2.1814,-2.1902,-2.1887,-2.1946,-2.2043,-2.2022,-2.2119,-2.2128,-2.2154,-2.2215,-2.2176,-2.2234,-2.2216,-2.2274,-2.2266,-2.2361,-2.2374,-2.2376,-2.2373,-2.2381,-2.2381,-2.2402,-2.2392,-2.2363,-2.2362,-2.2361,-2.2359,0,-2.1997,-2.199,-2.2092,-2.2113,-2.212,-2.2191,-2.2209,-2.2265,-2.2266,-2.2343,-2.236,-2.2361,-2.2427,-2.242,-2.2493,-2.2488,-2.2606,-2.259,-2.2595,-2.2592,-2.2672,-2.2665,-2.2933,-2.2968,-2.2728,-2.273,-2.2732,0,-2.2115,-2.2181,-2.2209,-2.2247,-2.2265,-2.2326,-2.2362,-2.2343,-2.2382,-2.2424,-2.2475,-2.2537,-2.2585,-2.2692,-2.27,-2.2756,-2.2742,-2.2832,-2.275,-2.2755,-2.2744,-2.2741,-2.2748,-2.2848,-2.2851,-2.2853,-2.2855,0,-2.2327,-2.232,-2.2372,-2.2424,-2.2467,-2.2507,-2.2543,-2.2576,-2.2561,-2.2607,-2.2672,-2.271,-2.2784,-2.2846,-2.2899,-2.2916,-2.2884,-2.288,-2.2902,-2.2911,-2.2911,-2.2913,-2.264,-2.2875,-2.2873,-2.2871,-2.287,-2.2869,-2.2482,-2.2538,-2.2567,-2.2626,-2.2651,-2.2685,-2.2739,-2.2745,-2.2799,-2.2858,-2.2844,-2.2918,-2.2949,-2.3017,-2.3039,-2.3097,-2.3065,-2.3096,-2.3104,-2.3112,-2.3122,-2.2901,-2.3107,-2.3106,-2.3106,-2.3105,-2.3105,0,-2.2692,-2.2707,-2.2762,-2.2813,-2.286,-2.2824,-2.2862,-2.2904,-2.297,-2.3001,-2.3049,-2.3125,-2.3184,-2.3196,-2.3253,-2.3298,-2.3285,-2.3314,-2.3311,-2.3315,-2.3148,-2.3124,-2.3324,-2.3324,-2.3323,-2.3323,-2.3323,-2.3323,-2.2807,-2.2901,-2.2897,-2.3003,-2.3018,-2.309,-2.3115,-2.3147,-2.3171,-2.3257,-2.3306,-2.3313,-2.3337,-2.3395,-2.3449,-2.3451,-2.3474,-2.3509,-2.3506,-2.3349,-2.3327,-2.3306,-2.3284,-2.3514,-2.3514,-2.3669,-2.367,-2.3671]},{"header":{"parameterUnit":"m.s-1","parameterCategory":1,"la1":30.2991,"la2":30.254,"lo1":-89.0895,"lo2":-89.0444,"dy":0.0017,"dx":0.0017,"nx":28,"ny":28,"refTime":"2024-02-14T09:00:00:Z","depth":0,"parameterNumber":3,"parameterNumberName":"V-component_of_WINDS"},"data":[0,0,0,0,0,0,0,0,0,0,0,0,0,0,0,0,0,0,0,0,0,0,0,0,0,0,0,0,0,0,0,0,0,0,0,0,0,0,0,0,0,0,0,0,0,0,0,0,0,0,0,0,0,0,0,0,0,0,-3.3814,-3.3815,0,-3.3896,-3.3897,-3.3898,-3.3861,-3.3859,-3.3857,-3.3855,-3.3936,-3.394,-3.3944,0,0,0,0,0,0,0,0,0,0,0,0,0,-3.3623,-3.3627,-3.3814,-3.3815,-3.3816,-3.3896,-3.3897,-3.3898,-3.3861,-3.3859,-3.3856,-3.3854,-3.3935,-3.394,-3.3945,0,0,0,0,0,0,0,0,0,0,0,0,0,-3.3706,-3.3628,-3.3814,-3.3807,-3.3808,-3.3895,-3.3897,-3.3898,-3.3862,-3.3859,-3.3856,-3.3853,-3.3933,-3.3939,-3.3945,-3.4043,0,0,-3.3964,-3.3966,0,0,0,0,0,0,0,0,-3.3701,-3.3713,-3.3807,-3.3808,-3.3809,-3.3865,-3.3859,-3.3947,-3.3863,-3.3841,-3.3855,-3.3852,-3.3915,-3.3922,-3.3944,-3.4047,-3.405,-3.3964,-3.3968,-3.3971,-3.3972,0,0,0,0,0,0,0,-3.3695,-3.3709,-3.3846,-3.3809,-3.381,-3.3799,-3.3808,-3.3876,-3.3894,-3.3843,-3.384,-3.3851,-3.3915,-3.3938,-3.3946,-3.4052,-3.3964,-3.397,-3.3973,-3.3976,-3.4237,-3.424,0,0,0,0,0,0,-3.369,-3.3704,-3.3844,-3.3849,-3.3746,-3.3805,-3.3815,-3.385,-3.3893,-3.3897,-3.3853,-3.3849,-3.393,-3.3939,-3.3949,-3.4065,-3.3971,-3.3976,-3.398,-3.4234,-3.4238,-3.4241,0,0,0,0,0,0,-3.3686,-3.3703,-3.384,-3.3776,-3.3793,-3.3812,-3.3852,-3.3853,-3.3877,-3.3901,-3.3904,-3.3874,-3.3928,-3.394,-3.402,-3.4067,-3.3979,-3.3984,-3.423,-3.4235,-3.4239,-3.43,0,0,0,0,0,0,-3.3681,-3.3702,-3.374,-3.3777,-3.3796,-3.3911,-3.3855,-3.3857,-3.3888,-3.3883,-3.3922,-3.3925,-3.3926,-3.4011,-3.4026,-3.4074,-3.3989,-3.4225,-3.4232,-3.4238,-3.4293,-3.4306,-3.4317,0,0,0,0,0,-3.3674,-3.3753,-3.3742,-3.3759,-3.3845,-3.3914,-3.3925,-3.3925,-3.3892,-3.393,-3.3945,-3.3924,-3.406,-3.4019,-3.4036,-3.4087,-3.4222,-3.423,-3.4237,-3.4288,-3.4303,-3.4316,0,0,0,0,0,0,-3.3721,-3.3758,-3.3746,-3.384,-3.3874,-3.3908,-3.3956,-3.3942,-3.3986,-3.3979,-3.3977,-3.3986,-3.4068,-3.4085,-3.404,-3.4183,-3.4136,-3.4147,-3.4169,-3.4184,-3.4195,-3.4189,-3.3994,0,0,0,0,0,-3.3742,-3.3796,-3.3826,-3.3905,-3.3923,-3.3937,-3.3967,-3.3964,-3.4,-3.4014,-3.4035,-3.4069,-3.4119,-3.4152,-3.42,-3.4295,-3.4303,-3.4338,-3.435,-3.4359,-3.4369,-3.442,-3.4436,-3.4266,-3.4266,-3.4265,0,0,-3.3786,-3.3813,-3.3848,-3.3916,-3.3942,-3.3997,-3.3949,-3.401,-3.4051,-3.4023,-3.4099,-3.4116,-3.4153,-3.4241,-3.4281,-3.4258,-3.4418,-3.4369,-3.4376,-3.4381,-3.4429,-3.4445,-3.4459,-3.4271,-3.427,-3.4269,0,0,-3.3895,-3.3922,-3.3991,-3.4018,-3.4059,-3.4067,-3.4083,-3.4119,-3.4129,-3.4206,-3.4186,-3.4234,-3.4321,-3.4348,-3.4373,-3.4492,-3.4473,-3.4507,-3.4568,-3.4617,-3.4631,-3.4643,-3.4684,-3.4699,-3.4516,-3.4517,-3.4517,0,-3.3945,-3.4029,-3.4028,-3.409,-3.412,-3.4098,-3.4167,-3.4193,-3.4247,-3.4267,-3.4241,-3.4349,-3.4373,-3.4466,-3.4495,-3.4516,-3.4534,-3.4503,-3.4629,-3.4641,-3.4652,-3.4691,-3.4707,-3.452,-3.452,-3.452,-3.4519,0,-3.4088,-3.4146,-3.4196,-3.4249,-3.4285,-3.435,-3.4358,-3.4394,-3.4388,-3.4398,-3.4476,-3.4504,-3.4556,-3.4578,-3.4572,-3.467,-3.4655,-3.4629,-3.4582,-3.4672,-3.4709,-3.4724,-3.4526,-3.4524,-3.4523,-3.4522,0,0,-3.4229,-3.428,-3.4299,-3.4322,-3.4365,-3.4409,-3.4473,-3.4524,-3.4555,-3.4592,-3.4645,-3.4718,-3.4694,-3.4723,-3.472,-3.4763,-3.4854,-3.4732,-3.4733,-3.4753,-3.4962,-3.4981,-3.4999,-3.4842,-3.4845,-3.4847,-3.4959,0,-3.4341,-3.4454,-3.4454,-3.4558,-3.461,-3.4589,-3.4644,-3.4676,-3.4687,-3.4732,-3.4744,-3.4796,-3.4761,-3.4778,-3.482,-3.4834,-3.4896,-3.4826,-3.489,-3.4892,-3.4881,-3.5019,-3.5039,-3.5143,-3.4974,-3.4976,-3.4978,0,-3.4487,-3.453,-3.4638,-3.4672,-3.4694,-3.4744,-3.4791,-3.4835,-3.4869,-3.4874,-3.4906,-3.4896,-3.4959,-3.491,-3.4997,-3.4949,-3.4975,-3.4986,-3.499,-3.4996,-3.494,-3.5028,-3.5177,-3.5192,-3.5001,-3.4999,-3.4997,0,-3.4579,-3.4663,-3.4739,-3.4759,-3.4801,-3.4836,-3.4855,-3.4886,-3.4917,-3.4958,-3.4977,-3.5024,-3.505,-3.5086,-3.5089,-3.5053,-3.5175,-3.5127,-3.518,-3.518,-3.5207,-3.5206,-3.5362,-3.5225,-3.5224,-3.5224,-3.5224,0,-3.4703,-3.4771,-3.478,-3.4827,-3.4901,-3.49,-3.4973,-3.4989,-3.5017,-3.5065,-3.5049,-3.5094,-3.5095,-3.5141,-3.5143,-3.5214,-3.5225,-3.523,-3.523,-3.5232,-3.5231,-3.5249,-3.5241,-3.5228,-3.5227,-3.5226,-3.5226,0,-3.4819,-3.4828,-3.4909,-3.4941,-3.4951,-3.5004,-3.5031,-3.5075,-3.5084,-3.5145,-3.5159,-3.5174,-3.5227,-3.5233,-3.5295,-3.5296,-3.5381,-3.5373,-3.537,-3.5368,-3.5422,-3.5416,-3.5595,-3.5618,-3.5466,-3.5467,-3.5468,0,-3.4898,-3.4949,-3.4987,-3.5018,-3.5039,-3.509,-3.5121,-3.5122,-3.5155,-3.5197,-3.5235,-3.5287,-3.5328,-3.5414,-3.5429,-3.5476,-3.5468,-3.5528,-3.5475,-3.5475,-3.5469,-3.5466,-3.547,-3.5538,-3.554,-3.5541,-3.5542,0,-3.5037,-3.5038,-3.5085,-3.5132,-3.517,-3.5207,-3.5242,-3.5269,-3.5273,-3.5311,-3.5365,-3.5397,-3.546,-3.5511,-3.5557,-3.5575,-3.5559,-3.5558,-3.5573,-3.5575,-3.5571,-3.5574,-3.5397,-3.5554,-3.5553,-3.5552,-3.5552,-3.5551,-3.5136,-3.518,-3.5213,-3.5265,-3.5291,-3.5324,-3.5366,-3.5381,-3.5427,-3.5478,-3.5475,-3.5535,-3.5567,-3.5627,-3.5648,-3.5693,-3.5674,-3.5695,-3.5701,-3.5706,-3.5711,-3.5564,-3.5702,-3.5701,-3.5701,-3.5701,-3.5701,0,-3.5274,-3.5294,-3.5341,-3.5391,-3.5431,-3.5413,-3.545,-3.5485,-3.5538,-3.5569,-3.561,-3.5672,-3.5721,-3.574,-3.5787,-3.582,-3.5814,-3.5833,-3.583,-3.5834,-3.5727,-3.5709,-3.5837,-3.5837,-3.5837,-3.5837,-3.5837,-3.5837,-3.535,-3.5424,-3.5429,-3.5515,-3.5534,-3.5593,-3.5616,-3.5646,-3.567,-3.574,-3.5781,-3.5793,-3.5819,-3.5868,-3.5912,-3.5916,-3.5934,-3.5956,-3.5957,-3.5856,-3.5842,-3.5829,-3.5812,-3.596,-3.596,-3.606,-3.6061,-3.6062]}]]